Date/Time,Expocode,Latitude,Longitude,Depth,version,SOCAT_DOI,QC_Flag,P_sal,Temp,Temperature of Equilibration,Atmospheric Pressure,Equilibrator Pressure (relative),WOA_SSS,NCEP_SLP,ETOPO2_depth,dist_to_land,GVCO2,CO2 Mole Fraction,xCO2water_SST_dry,pCO2 In Water - Equilibrator Temperature,pCO2,fCO2water_equ_wet,fCO2water_SST_wet,fCO2,fCO2rec_src,fCO2  QC Flag,pCO2  QC Flag,P_sal  QC Flag,Temp  QC Flag
2019-09-19T04:59:04.000Z,26NA20190918,57.766,7.524,,2020.0N,SOCATENHANCEDDOI,A,,23.556,15.305,1018.43,,32.173,1026.6,426.0,45.0,,,,,,,,,0,9,9,9,9
2019-09-19T05:03:35.000Z,26NA20190918,57.766,7.489,,2020.0N,SOCATENHANCEDDOI,A,,14.983,15.32,1022.39,1029.2,32.173,1026.6,422.0,45.0,,,,,,,,,0,9,9,9,9
2019-09-19T05:08:30.000Z,26NA20190918,57.766,7.452,,2020.0N,SOCATENHANCEDDOI,A,,14.946,15.17,1022.46,1029.4,32.173,1026.6,420.0,45.0,,,,,,,,,0,9,9,9,9
2019-09-19T05:13:00.000Z,26NA20190918,57.767,7.417,,2020.0N,SOCATENHANCEDDOI,A,,14.922,15.13,1022.61,1029.2,32.173,1026.6,418.0,45.0,,,,,,,,,0,9,9,9,9
2019-09-19T05:14:30.000Z,26NA20190918,57.767,7.406,,2020.0N,SOCATENHANCEDDOI,A,,14.94,15.13,1022.49,1029.0,32.173,1026.6,417.0,45.0,,,,,,,,,0,9,9,9,9
2019-09-19T05:16:00.000Z,26NA20190918,57.767,7.394,,2020.0N,SOCATENHANCEDDOI,A,,14.923,15.13,1022.52,1028.9,32.173,1026.6,417.0,45.0,,,,,,,,,0,9,9,9,9
2019-09-19T05:20:30.000Z,26NA20190918,57.767,7.359,,2020.0N,SOCATENHANCEDDOI,A,,14.953,15.12,1022.4,1028.7,32.173,1026.6,414.0,44.0,,,,,,,,,0,9,9,9,9
2019-09-19T05:22:00.000Z,26NA20190918,57.768,7.347,,2020.0N,SOCATENHANCEDDOI,A,,14.996,15.16,1022.51,1028.8,32.173,1026.6,413.0,44.0,,,,,,,,,0,9,9,9,9
2019-09-19T05:23:31.000Z,26NA20190918,57.768,7.335,,2020.0N,SOCATENHANCEDDOI,A,,15.0,15.18,1022.59,1028.7,32.173,1026.6,409.0,44.0,,,,,,,,,0,9,9,9,9
2019-09-19T05:28:01.000Z,26NA20190918,57.77,7.301,,2020.0N,SOCATENHANCEDDOI,A,,14.959,15.16,1022.33,1028.4,32.173,1026.6,399.0,44.0,,,,,,,,,0,9,9,9,9
2019-09-19T05:29:32.000Z,26NA20190918,57.771,7.289,,2020.0N,SOCATENHANCEDDOI,A,,14.941,15.14,1022.48,1028.2,32.173,1026.6,395.0,44.0,,,,,,,,,0,9,9,9,9
2019-09-19T05:31:02.000Z,26NA20190918,57.771,7.277,,2020.0N,SOCATENHANCEDDOI,A,,14.935,15.12,1022.48,1028.1,32.173,1026.6,392.0,44.0,,,,,,,,,0,9,9,9,9
2019-09-19T05:35:32.000Z,26NA20190918,57.773,7.242,,2020.0N,SOCATENHANCEDDOI,A,,15.05,15.17,1022.53,1028.0,32.173,1026.6,384.0,44.0,,,,,,,,,0,9,9,9,9
2019-09-19T05:37:03.000Z,26NA20190918,57.774,7.23,,2020.0N,SOCATENHANCEDDOI,A,,15.061,15.23,1022.54,1028.0,32.173,1026.6,382.0,44.0,,,,,,,,,0,9,9,9,9
2019-09-19T05:38:33.000Z,26NA20190918,57.774,7.219,,2020.0N,SOCATENHANCEDDOI,A,,15.075,15.24,1022.55,1027.9,32.173,1026.6,379.0,44.0,,,,,,,,,0,9,9,9,9
2019-09-19T05:43:03.000Z,26NA20190918,57.776,7.184,,2020.0N,SOCATENHANCEDDOI,A,,15.076,15.25,1022.75,1027.9,32.173,1026.6,375.0,44.0,,,,,,,,,0,9,9,9,9
2019-09-19T05:44:34.000Z,26NA20190918,57.776,7.172,,2020.0N,SOCATENHANCEDDOI,A,,15.079,15.25,1022.58,1027.6,32.173,1026.6,374.0,43.0,,,,,,,,,0,9,9,9,9
2019-09-19T05:46:04.000Z,26NA20190918,57.777,7.161,,2020.0N,SOCATENHANCEDDOI,A,,15.097,15.27,1022.58,1027.4,32.173,1026.6,373.0,43.0,,,,,,,,,0,9,9,9,9
2019-09-19T05:47:34.000Z,26NA20190918,57.777,7.149,,2020.0N,SOCATENHANCEDDOI,A,,15.082,15.27,1022.55,1027.3,32.173,1026.6,372.0,43.0,,,,,,,,,0,9,9,9,9
2019-09-19T05:49:05.000Z,26NA20190918,57.778,7.138,,2020.0N,SOCATENHANCEDDOI,A,,15.047,15.26,1022.71,1027.4,32.173,1026.6,371.0,43.0,,,,,,,,,0,9,9,9,9
2019-09-19T05:54:01.000Z,26NA20190918,57.78,7.1,,2020.0N,SOCATENHANCEDDOI,A,,15.064,15.26,1022.65,1026.8,32.173,1026.6,371.0,43.0,,386.2,,,381.7,,380.4,380.304,4,2,9,9,9
2019-09-19T05:55:34.000Z,26NA20190918,57.78,7.088,,2020.0N,SOCATENHANCEDDOI,A,,15.052,15.24,1022.6,1026.7,32.173,1026.6,371.0,43.0,,384.6,,,380.2,,378.8,378.809,4,2,9,9,9
2019-09-19T05:57:06.000Z,26NA20190918,57.781,7.076,,2020.0N,SOCATENHANCEDDOI,A,,15.037,15.23,1022.66,1026.5,32.173,1026.6,371.0,43.0,,383.0,,,378.5,,377.1,377.115,4,2,9,9,9
2019-09-19T05:58:39.000Z,26NA20190918,57.782,7.064,,2020.0N,SOCATENHANCEDDOI,A,,15.016,15.22,1022.68,1026.5,32.173,1026.6,371.0,43.0,,381.8,,,377.1,,375.7,375.72,4,2,9,9,9
2019-09-19T06:00:11.000Z,26NA20190918,57.782,7.052,,2020.0N,SOCATENHANCEDDOI,A,,14.999,15.2,1022.74,1026.3,32.173,1027.9,372.0,43.0,,380.6,,,375.9,,374.6,374.525,4,2,9,9,9
2019-09-19T06:02:05.000Z,26NA20190918,57.783,7.038,,2020.0N,SOCATENHANCEDDOI,A,,14.985,15.18,1022.81,1026.5,32.173,1027.9,372.0,43.0,,379.6,,,375.2,,373.8,373.827,4,2,9,9,9
2019-09-19T06:03:38.000Z,26NA20190918,57.784,7.026,,2020.0N,SOCATENHANCEDDOI,A,,14.965,15.17,1022.75,1026.4,32.173,1027.9,372.0,43.0,,378.4,,,373.7,,372.4,372.332,4,2,9,9,9
2019-09-19T06:05:10.000Z,26NA20190918,57.785,7.013,,2020.0N,SOCATENHANCEDDOI,A,,14.95,15.15,1022.8,1026.4,32.173,1027.9,372.0,43.0,,377.4,,,372.8,,371.5,371.435,4,2,9,9,9
2019-09-19T06:06:43.000Z,26NA20190918,57.785,7.002,,2020.0N,SOCATENHANCEDDOI,A,,14.933,15.13,1022.86,1026.2,32.173,1027.9,372.0,42.0,,376.3,,,371.8,,370.4,370.439,4,2,9,9,9
2019-09-19T06:08:16.000Z,26NA20190918,57.786,6.989,,2020.0N,SOCATENHANCEDDOI,A,,14.919,15.12,1022.89,1026.1,32.959,1027.9,372.0,42.0,,375.6,,,371.0,,369.6,369.641,4,2,9,9,9
2019-09-19T06:09:48.000Z,26NA20190918,57.787,6.978,,2020.0N,SOCATENHANCEDDOI,A,,14.913,15.1,1022.84,1025.9,32.959,1027.9,372.0,42.0,,375.0,,,370.5,,369.2,369.143,4,2,9,9,9
2019-09-19T06:11:21.000Z,26NA20190918,57.788,6.965,,2020.0N,SOCATENHANCEDDOI,A,,14.925,15.1,1022.8,1025.7,32.959,1027.9,371.0,42.0,,374.8,,,370.4,,369.1,369.044,4,2,9,9,9
2019-09-19T06:12:53.000Z,26NA20190918,57.788,6.953,,2020.0N,SOCATENHANCEDDOI,A,,14.949,15.11,1022.8,1025.6,32.959,1027.9,370.0,42.0,,375.2,,,371.0,,369.6,369.643,4,2,9,9,9
2019-09-19T06:14:26.000Z,26NA20190918,57.789,6.941,,2020.0N,SOCATENHANCEDDOI,A,,15.027,15.14,1022.71,1025.4,32.959,1027.9,370.0,42.0,,376.5,,,373.0,,371.6,371.637,4,2,9,9,9
2019-09-19T06:15:59.000Z,26NA20190918,57.79,6.929,,2020.0N,SOCATENHANCEDDOI,A,,15.2,15.23,1022.86,1025.3,32.959,1027.9,370.0,42.0,,379.3,,,377.0,,375.6,375.625,4,2,9,9,9
2019-09-19T06:17:31.000Z,26NA20190918,57.791,6.918,,2020.0N,SOCATENHANCEDDOI,A,,15.237,15.37,1022.74,1025.2,32.959,1027.9,370.0,42.0,,383.1,,,379.0,,377.6,377.619,4,2,9,9,9
2019-09-19T06:19:04.000Z,26NA20190918,57.792,6.906,,2020.0N,SOCATENHANCEDDOI,A,,15.325,15.44,1022.76,1025.1,32.959,1027.9,370.0,42.0,,386.5,,,382.6,,381.2,381.207,4,2,9,9,9
2019-09-19T06:20:37.000Z,26NA20190918,57.793,6.894,,2020.0N,SOCATENHANCEDDOI,A,,15.367,15.5,1022.81,1024.9,32.959,1027.9,370.0,42.0,,389.6,,,385.3,,383.9,383.899,4,2,9,9,9
2019-09-19T06:22:09.000Z,26NA20190918,57.793,6.882,,2020.0N,SOCATENHANCEDDOI,A,,15.401,15.54,1022.87,1025.0,32.959,1027.9,370.0,42.0,,392.8,,,388.4,,387.0,386.988,4,2,9,9,9
2019-09-19T06:23:42.000Z,26NA20190918,57.794,6.871,,2020.0N,SOCATENHANCEDDOI,A,,15.437,15.57,1022.86,1024.9,32.959,1027.9,369.0,42.0,,395.6,,,391.2,,389.8,389.778,4,2,9,9,9
2019-09-19T06:25:15.000Z,26NA20190918,57.794,6.859,,2020.0N,SOCATENHANCEDDOI,A,,15.432,15.6,1022.77,1024.8,32.959,1027.9,369.0,41.0,,398.0,,,392.9,,391.5,391.472,4,2,9,9,9
2019-09-19T06:26:47.000Z,26NA20190918,57.795,6.848,,2020.0N,SOCATENHANCEDDOI,A,,15.421,15.6,1022.84,1024.9,32.959,1027.9,368.0,41.0,,399.4,,,394.2,,392.7,392.767,4,2,9,9,9
2019-09-19T06:28:20.000Z,26NA20190918,57.795,6.836,,2020.0N,SOCATENHANCEDDOI,A,,15.412,15.59,1022.89,1024.7,32.959,1027.9,368.0,41.0,,399.8,,,394.5,,393.1,393.066,4,2,9,9,9
2019-09-19T06:29:52.000Z,26NA20190918,57.796,6.824,,2020.0N,SOCATENHANCEDDOI,A,,15.449,15.58,1022.86,1024.6,32.959,1027.9,367.0,41.0,,399.9,,,395.3,,393.9,393.864,4,2,9,9,9
2019-09-19T06:31:25.000Z,26NA20190918,57.797,6.813,,2020.0N,SOCATENHANCEDDOI,A,,15.574,15.64,1022.85,1024.6,32.959,1027.9,366.0,41.0,,400.6,,,397.1,,395.7,395.66,4,2,9,9,9
2019-09-19T06:32:58.000Z,26NA20190918,57.797,6.802,,2020.0N,SOCATENHANCEDDOI,A,,15.597,15.73,1022.9,1024.5,32.959,1027.9,364.0,41.0,,403.9,,,399.2,,397.8,397.753,4,2,9,9,9
2019-09-19T06:34:32.000Z,26NA20190918,57.798,6.79,,2020.0N,SOCATENHANCEDDOI,A,,15.585,15.75,1022.89,1024.4,32.959,1027.9,362.0,41.0,,406.1,,,400.7,,399.3,399.247,4,2,9,9,9
2019-09-19T06:36:04.000Z,26NA20190918,57.798,6.779,,2020.0N,SOCATENHANCEDDOI,A,,15.543,15.74,1022.96,1024.5,32.959,1027.9,360.0,41.0,,406.4,,,400.5,,399.1,399.047,4,2,9,9,9
2019-09-19T06:37:37.000Z,26NA20190918,57.799,6.768,,2020.0N,SOCATENHANCEDDOI,A,,15.499,15.7,1023.09,1024.4,32.959,1027.9,359.0,41.0,,405.0,,,399.1,,397.6,397.652,4,2,9,9,9
2019-09-19T06:39:10.000Z,26NA20190918,57.799,6.756,,2020.0N,SOCATENHANCEDDOI,A,,15.494,15.67,1022.97,1024.6,32.959,1027.9,358.0,41.0,,403.3,,,397.9,,396.5,396.456,4,2,9,9,9
2019-09-19T06:40:42.000Z,26NA20190918,57.8,6.745,,2020.0N,SOCATENHANCEDDOI,A,,15.501,15.66,1023.05,1024.5,32.959,1027.9,356.0,41.0,,402.6,,,397.5,,396.0,396.057,4,2,9,9,9
2019-09-19T06:42:15.000Z,26NA20190918,57.8,6.734,,2020.0N,SOCATENHANCEDDOI,A,,15.519,15.68,1023.02,1024.4,32.959,1027.9,354.0,41.0,,402.4,,,397.2,,395.8,395.759,4,2,9,9,9
2019-09-19T06:43:48.000Z,26NA20190918,57.801,6.723,,2020.0N,SOCATENHANCEDDOI,A,,15.494,15.68,1023.08,1024.4,32.959,1027.9,353.0,41.0,,403.1,,,397.4,,396.0,395.958,4,2,9,9,9
2019-09-19T06:45:21.000Z,26NA20190918,57.802,6.711,,2020.0N,SOCATENHANCEDDOI,A,,15.459,15.66,1023.04,1024.2,32.959,1027.9,351.0,41.0,,403.6,,,397.7,,396.2,396.256,4,2,9,9,9
2019-09-19T06:46:53.000Z,26NA20190918,57.802,6.7,,2020.0N,SOCATENHANCEDDOI,A,,15.449,15.63,1023.09,1024.2,32.959,1027.9,349.0,41.0,,403.3,,,397.7,,396.2,396.256,4,2,9,9,9
2019-09-19T06:48:25.000Z,26NA20190918,57.803,6.689,,2020.0N,SOCATENHANCEDDOI,A,,15.424,15.62,1023.15,1024.1,32.959,1027.9,348.0,41.0,,402.8,,,396.9,,395.4,395.459,4,2,9,9,9
2019-09-19T06:49:58.000Z,26NA20190918,57.803,6.677,,2020.0N,SOCATENHANCEDDOI,A,,15.395,15.6,1023.13,1024.3,32.959,1027.9,347.0,40.0,,402.1,,,396.2,,394.7,394.76,4,2,9,9,9
2019-09-19T06:51:31.000Z,26NA20190918,57.804,6.666,,2020.0N,SOCATENHANCEDDOI,A,,15.369,15.57,1023.23,1024.2,32.959,1027.9,346.0,40.0,,401.1,,,395.2,,393.7,393.764,4,2,9,9,9
2019-09-19T06:53:03.000Z,26NA20190918,57.805,6.654,,2020.0N,SOCATENHANCEDDOI,A,,15.35,15.55,1023.14,1024.1,32.959,1027.9,345.0,40.0,,400.0,,,394.1,,392.7,392.667,4,2,9,9,9
2019-09-19T06:54:36.000Z,26NA20190918,57.805,6.643,,2020.0N,SOCATENHANCEDDOI,A,,15.338,15.53,1023.21,1024.2,32.959,1027.9,344.0,40.0,,399.4,,,393.7,,392.3,392.268,4,2,9,9,9
2019-09-19T06:56:09.000Z,26NA20190918,57.806,6.632,,2020.0N,SOCATENHANCEDDOI,A,,15.26,15.52,1023.09,1024.1,32.959,1027.9,342.0,40.0,,398.5,,,391.7,,390.2,390.275,4,2,9,9,9
2019-09-19T06:57:41.000Z,26NA20190918,57.808,6.622,,2020.0N,SOCATENHANCEDDOI,A,,15.195,15.45,1023.15,1024.0,32.959,1027.9,341.0,40.0,,398.2,,,391.4,,390.0,389.975,4,2,9,9,9
2019-09-19T06:59:14.000Z,26NA20190918,57.811,6.612,,2020.0N,SOCATENHANCEDDOI,A,,15.14,15.39,1023.48,1024.1,32.959,1027.9,341.0,40.0,,397.5,,,390.9,,389.5,389.475,4,2,9,9,9
2019-09-19T07:00:46.000Z,26NA20190918,57.814,6.602,,2020.0N,SOCATENHANCEDDOI,A,,15.108,15.34,1023.36,1024.0,32.959,1027.9,340.0,39.0,,397.3,,,390.9,,389.5,389.475,4,2,9,9,9
2019-09-19T07:02:40.000Z,26NA20190918,57.819,6.589,,2020.0N,SOCATENHANCEDDOI,A,,15.058,15.29,1023.25,1024.2,32.959,1027.9,340.0,39.0,,397.4,,,391.2,,389.8,389.773,4,2,9,9,9
2019-09-19T07:04:13.000Z,26NA20190918,57.823,6.579,,2020.0N,SOCATENHANCEDDOI,A,,15.021,15.26,1023.39,1024.2,32.959,1027.9,340.0,38.0,,397.6,,,391.2,,389.8,389.772,4,2,9,9,9
2019-09-19T07:05:45.000Z,26NA20190918,57.828,6.569,,2020.0N,SOCATENHANCEDDOI,A,,14.981,15.22,1023.46,1023.9,32.959,1027.9,339.0,38.0,,397.6,,,391.2,,389.7,389.772,4,2,9,9,9
2019-09-19T07:07:18.000Z,26NA20190918,57.832,6.559,,2020.0N,SOCATENHANCEDDOI,A,,14.956,15.19,1023.24,1024.0,32.959,1027.9,339.0,37.0,,397.7,,,391.4,,390.0,389.97,4,2,9,9,9
2019-09-19T07:08:52.000Z,26NA20190918,57.837,6.548,,2020.0N,SOCATENHANCEDDOI,A,,14.932,15.16,1023.23,1024.0,32.959,1027.9,339.0,37.0,,397.8,,,391.6,,390.2,390.169,4,2,9,9,9
2019-09-19T07:10:25.000Z,26NA20190918,57.841,6.538,,2020.0N,SOCATENHANCEDDOI,A,,14.902,15.14,1023.32,1023.9,32.959,1027.9,338.0,36.0,,397.7,,,391.3,,389.9,389.87,4,2,9,9,9
2019-09-19T07:11:57.000Z,26NA20190918,57.845,6.527,,2020.0N,SOCATENHANCEDDOI,A,,14.884,15.12,1023.58,1023.9,32.959,1027.9,338.0,36.0,,397.8,,,391.4,,390.0,389.969,4,2,9,9,9
2019-09-19T07:13:30.000Z,26NA20190918,57.85,6.517,,2020.0N,SOCATENHANCEDDOI,A,,14.857,15.09,1023.53,1023.8,32.959,1027.9,337.0,35.0,,397.9,,,391.6,,390.1,390.168,4,2,9,9,9
2019-09-19T07:15:02.000Z,26NA20190918,57.854,6.506,,2020.0N,SOCATENHANCEDDOI,A,,14.856,15.06,1023.44,1023.9,32.959,1027.9,337.0,35.0,,398.0,,,392.2,,390.8,390.766,4,2,9,9,9
2019-09-19T07:16:35.000Z,26NA20190918,57.859,6.496,,2020.0N,SOCATENHANCEDDOI,A,,14.88,15.07,1023.52,1024.1,32.959,1027.9,336.0,34.0,,398.1,,,392.6,,391.1,391.164,4,2,9,9,9
2019-09-19T07:18:08.000Z,26NA20190918,57.863,6.486,,2020.0N,SOCATENHANCEDDOI,A,,14.896,15.08,1023.63,1023.9,32.959,1027.9,336.0,34.0,,397.5,,,392.0,,390.6,390.567,4,2,9,9,9
2019-09-19T07:19:40.000Z,26NA20190918,57.868,6.475,,2020.0N,SOCATENHANCEDDOI,A,,14.922,15.1,1023.58,1023.9,32.959,1027.9,335.0,34.0,,397.1,,,391.7,,390.3,390.269,4,2,9,9,9
2019-09-19T07:21:13.000Z,26NA20190918,57.872,6.465,,2020.0N,SOCATENHANCEDDOI,A,,14.929,15.12,1023.59,1023.9,32.959,1027.9,335.0,33.0,,396.9,,,391.3,,389.8,389.87,4,2,9,9,9
2019-09-19T07:22:46.000Z,26NA20190918,57.876,6.455,,2020.0N,SOCATENHANCEDDOI,A,,14.936,15.14,1023.7,1023.9,32.959,1027.9,336.0,33.0,,396.7,,,390.8,,389.4,389.372,4,2,9,9,9
2019-09-19T07:24:18.000Z,26NA20190918,57.881,6.444,,2020.0N,SOCATENHANCEDDOI,A,,14.938,15.14,1023.9,1023.8,32.959,1027.9,335.0,33.0,,396.5,,,390.6,,389.2,389.173,4,2,9,9,9
2019-09-19T07:25:52.000Z,26NA20190918,57.885,6.434,,2020.0N,SOCATENHANCEDDOI,A,,14.937,15.14,1023.79,1024.0,32.959,1027.9,334.0,33.0,,396.0,,,390.3,,388.8,388.874,4,2,9,9,9
2019-09-19T07:27:25.000Z,26NA20190918,57.889,6.423,,2020.0N,SOCATENHANCEDDOI,A,,14.931,15.16,1023.55,1023.9,32.959,1027.9,331.0,33.0,,395.8,,,389.6,,388.2,388.177,4,2,9,9,9
2019-09-19T07:28:57.000Z,26NA20190918,57.894,6.413,,2020.0N,SOCATENHANCEDDOI,A,,14.918,15.14,1023.54,1024.1,32.959,1027.9,328.0,32.0,,395.8,,,389.8,,388.4,388.375,4,2,9,9,9
2019-09-19T07:30:30.000Z,26NA20190918,57.898,6.403,,2020.0N,SOCATENHANCEDDOI,A,,14.905,15.15,1023.84,1023.7,32.959,1027.9,326.0,32.0,,395.9,,,389.3,,387.9,387.877,4,2,9,9,9
2019-09-19T07:32:03.000Z,26NA20190918,57.903,6.393,,2020.0N,SOCATENHANCEDDOI,A,,14.891,15.13,1023.76,1023.8,32.959,1027.9,323.0,32.0,,395.5,,,389.1,,387.6,387.678,4,2,9,9,9
2019-09-19T07:33:35.000Z,26NA20190918,57.907,6.383,,2020.0N,SOCATENHANCEDDOI,A,,14.876,15.11,1023.76,1023.7,32.959,1027.9,321.0,32.0,,395.0,,,388.6,,387.2,387.179,4,2,9,9,9
2019-09-19T07:35:08.000Z,26NA20190918,57.911,6.373,,2020.0N,SOCATENHANCEDDOI,A,,14.849,15.08,1023.99,1023.8,32.959,1027.9,318.0,32.0,,394.3,,,388.0,,386.6,386.581,4,2,9,9,9
2019-09-19T07:36:41.000Z,26NA20190918,57.916,6.362,,2020.0N,SOCATENHANCEDDOI,A,,14.826,15.07,1023.76,1023.8,32.959,1027.9,315.0,31.0,,393.5,,,387.0,,385.6,385.584,4,2,9,9,9
2019-09-19T07:38:13.000Z,26NA20190918,57.92,6.353,,2020.0N,SOCATENHANCEDDOI,A,,14.804,15.03,1023.87,1023.7,32.959,1027.9,313.0,31.0,,393.3,,,387.2,,385.8,385.783,4,2,9,9,9
2019-09-19T07:39:46.000Z,26NA20190918,57.925,6.343,,2020.0N,SOCATENHANCEDDOI,A,,14.791,15.01,1023.95,1023.9,32.959,1027.9,311.0,31.0,,394.4,,,388.4,,387.0,386.978,4,2,9,9,9
2019-09-19T07:41:18.000Z,26NA20190918,57.929,6.332,,2020.0N,SOCATENHANCEDDOI,A,,14.782,15.02,1024.16,1024.0,32.959,1027.9,310.0,31.0,,395.5,,,389.2,,387.8,387.775,4,2,9,9,9
2019-09-19T07:42:52.000Z,26NA20190918,57.934,6.322,,2020.0N,SOCATENHANCEDDOI,A,,14.738,14.99,1024.27,1023.9,32.959,1027.9,308.0,31.0,,396.2,,,389.7,,388.3,388.273,4,2,9,9,9
2019-09-19T07:44:25.000Z,26NA20190918,57.938,6.312,,2020.0N,SOCATENHANCEDDOI,A,,14.692,14.96,1024.21,1024.0,32.959,1027.9,307.0,31.0,,396.9,,,390.2,,388.7,388.77,4,2,9,9,9
2019-09-19T07:45:58.000Z,26NA20190918,57.942,6.302,,2020.0N,SOCATENHANCEDDOI,A,,14.636,14.92,1024.11,1024.0,32.959,1027.9,306.0,31.0,,397.6,,,390.6,,389.2,389.167,4,2,9,9,9
2019-09-19T07:47:30.000Z,26NA20190918,57.947,6.292,,2020.0N,SOCATENHANCEDDOI,A,,14.576,14.87,1024.04,1023.7,32.959,1027.9,304.0,31.0,,399.7,,,392.4,,391.0,390.96,4,2,9,9,9
2019-09-19T07:49:03.000Z,26NA20190918,57.951,6.282,,2020.0N,SOCATENHANCEDDOI,A,,14.125,14.75,1023.87,1023.9,32.959,1027.9,303.0,31.0,,404.0,,,391.2,,389.8,389.756,4,2,9,9,9
2019-09-19T07:50:36.000Z,26NA20190918,57.956,6.272,,2020.0N,SOCATENHANCEDDOI,A,,13.722,14.41,1023.92,1023.7,32.959,1027.9,303.0,31.0,,417.1,,,402.9,,401.4,401.405,4,2,9,9,9
2019-09-19T07:52:08.000Z,26NA20190918,57.96,6.262,,2020.0N,SOCATENHANCEDDOI,A,,13.638,14.04,1024.12,1023.8,32.959,1027.9,302.0,30.0,,431.7,,,422.3,,420.7,420.732,4,2,9,9,9
2019-09-19T07:53:41.000Z,26NA20190918,57.965,6.252,,2020.0N,SOCATENHANCEDDOI,A,,13.607,13.93,1024.05,1023.7,32.959,1027.9,301.0,30.0,,442.5,,,434.2,,432.6,432.587,4,2,9,9,9
2019-09-19T07:55:13.000Z,26NA20190918,57.969,6.242,,2020.0N,SOCATENHANCEDDOI,A,,13.828,13.88,1024.12,1023.8,32.959,1028.7,301.0,30.0,,448.0,,,444.8,,443.2,443.152,4,2,9,9,9
2019-09-19T07:56:46.000Z,26NA20190918,57.974,6.233,,2020.0N,SOCATENHANCEDDOI,A,,13.81,14.02,1024.16,1023.9,32.959,1028.7,300.0,30.0,,449.6,,,443.5,,441.8,441.856,4,2,9,9,9
2019-09-19T07:58:19.000Z,26NA20190918,57.978,6.223,,2020.0N,SOCATENHANCEDDOI,A,,13.952,14.06,1024.24,1023.7,32.959,1028.7,300.0,30.0,,449.6,,,445.2,,443.6,443.553,4,2,9,9,9
2019-09-19T07:59:53.000Z,26NA20190918,57.982,6.215,,2020.0N,SOCATENHANCEDDOI,A,,14.113,14.17,1024.23,1023.8,32.959,1028.7,299.0,30.0,,447.8,,,444.4,,442.8,442.759,4,2,9,9,9
2019-09-19T08:01:25.000Z,26NA20190918,57.986,6.206,,2020.0N,SOCATENHANCEDDOI,A,,14.261,14.31,1024.08,1023.7,32.959,1028.7,300.0,30.0,,445.9,,,442.6,,440.9,440.969,4,2,9,9,9
2019-09-19T08:03:19.000Z,26NA20190918,57.991,6.195,,2020.0N,SOCATENHANCEDDOI,A,,14.282,14.46,1024.3,1023.9,32.959,1028.7,299.0,30.0,,443.3,,,437.6,,436.0,435.988,4,2,9,9,9
2019-09-19T08:04:52.000Z,26NA20190918,57.995,6.186,,2020.0N,SOCATENHANCEDDOI,A,,14.258,14.5,1024.27,1024.0,32.959,1028.7,298.0,30.0,,441.9,,,435.0,,433.4,433.397,4,2,9,9,9
2019-09-19T08:06:24.000Z,26NA20190918,57.999,6.178,,2020.0N,SOCATENHANCEDDOI,A,,14.116,14.49,1024.17,1023.8,32.959,1028.7,295.0,30.0,,440.5,,,431.2,,429.6,429.608,4,2,9,9,9
2019-09-19T08:07:57.000Z,26NA20190918,58.003,6.169,,2020.0N,SOCATENHANCEDDOI,A,,14.079,14.37,1024.42,1023.9,35.0,1028.7,292.0,31.0,,439.9,,,432.2,,430.6,430.604,4,2,9,9,9
2019-09-19T08:09:29.000Z,26NA20190918,58.007,6.16,,2020.0N,SOCATENHANCEDDOI,A,,14.09,14.33,1024.24,1023.9,35.0,1028.7,289.0,31.0,,440.0,,,433.3,,431.7,431.7,4,2,9,9,9
2019-09-19T08:11:02.000Z,26NA20190918,58.011,6.152,,2020.0N,SOCATENHANCEDDOI,A,,14.048,14.32,1024.19,1023.8,35.0,1028.7,286.0,31.0,,439.6,,,432.2,,430.6,430.603,4,2,9,9,9
2019-09-19T08:12:35.000Z,26NA20190918,58.015,6.143,,2020.0N,SOCATENHANCEDDOI,A,,13.881,14.27,1024.55,1023.7,35.0,1028.7,286.0,31.0,,439.5,,,430.0,,428.4,428.408,4,2,9,9,9
2019-09-19T08:14:07.000Z,26NA20190918,58.018,6.134,,2020.0N,SOCATENHANCEDDOI,A,,13.722,14.1,1024.48,1023.8,35.0,1028.7,288.0,31.0,,441.1,,,431.8,,430.3,430.198,4,2,9,9,9
2019-09-19T08:15:40.000Z,26NA20190918,58.022,6.126,,2020.0N,SOCATENHANCEDDOI,A,,13.925,13.99,1024.56,1023.8,35.0,1028.7,291.0,31.0,,441.5,,,438.1,,436.5,436.479,4,2,9,9,9
2019-09-19T08:17:12.000Z,26NA20190918,58.026,6.117,,2020.0N,SOCATENHANCEDDOI,A,,13.986,14.13,1024.36,1023.7,35.0,1028.7,293.0,31.0,,435.3,,,430.3,,428.8,428.709,4,2,9,9,9
2019-09-19T08:18:45.000Z,26NA20190918,58.029,6.109,,2020.0N,SOCATENHANCEDDOI,A,,14.044,14.19,1024.54,1023.6,35.0,1028.7,296.0,32.0,,430.6,,,425.6,,424.0,424.028,4,2,9,9,9
2019-09-19T08:20:17.000Z,26NA20190918,58.033,6.1,,2020.0N,SOCATENHANCEDDOI,A,,14.103,14.24,1024.53,1023.7,35.0,1028.7,299.0,32.0,,428.0,,,423.2,,421.7,421.638,4,2,9,9,9
2019-09-19T08:21:50.000Z,26NA20190918,58.036,6.092,,2020.0N,SOCATENHANCEDDOI,A,,14.21,14.3,1024.26,1023.5,35.0,1028.7,302.0,32.0,,426.3,,,422.3,,420.7,420.743,4,2,9,9,9
2019-09-19T08:23:23.000Z,26NA20190918,58.04,6.083,,2020.0N,SOCATENHANCEDDOI,A,,14.288,14.4,1024.56,1023.7,35.0,1028.7,304.0,32.0,,425.1,,,420.7,,419.2,419.151,4,2,9,9,9
2019-09-19T08:24:55.000Z,26NA20190918,58.044,6.075,,2020.0N,SOCATENHANCEDDOI,A,,14.32,14.48,1024.48,1023.8,35.0,1028.7,306.0,32.0,,424.7,,,419.5,,417.9,417.955,4,2,9,9,9
2019-09-19T08:26:28.000Z,26NA20190918,58.047,6.067,,2020.0N,SOCATENHANCEDDOI,A,,14.306,14.51,1024.64,1023.8,35.0,1028.7,307.0,32.0,,425.0,,,419.0,,417.5,417.457,4,2,9,9,9
2019-09-19T08:28:01.000Z,26NA20190918,58.051,6.059,,2020.0N,SOCATENHANCEDDOI,A,,14.283,14.51,1024.46,1023.7,35.0,1028.7,309.0,32.0,,426.0,,,419.5,,417.9,417.955,4,2,9,9,9
2019-09-19T08:32:32.000Z,26NA20190918,58.063,6.036,,2020.0N,SOCATENHANCEDDOI,A,,14.239,14.47,1024.57,1023.7,35.0,1028.7,312.0,33.0,,,,,,,,,0,9,9,9,9
2019-09-19T08:34:02.000Z,26NA20190918,58.067,6.028,,2020.0N,SOCATENHANCEDDOI,A,,14.192,,1024.51,1023.8,35.0,1028.7,313.0,33.0,,,,,,,,,0,9,9,9,9
2019-09-19T08:35:32.000Z,26NA20190918,58.07,6.02,,2020.0N,SOCATENHANCEDDOI,A,,14.122,,1024.48,1023.7,35.0,1028.7,314.0,33.0,,,,,,,,,0,9,9,9,9
2019-09-23T21:03:24.000Z,26NA20190918,59.916,-42.576,,2020.0N,SOCATENHANCEDDOI,A,,4.745,5.07,987.68,988.8,34.372,989.5,137.0,45.0,,342.9,,,327.2,,325.9,325.883,4,2,9,9,9
2019-09-23T21:04:56.000Z,26NA20190918,59.913,-42.588,,2020.0N,SOCATENHANCEDDOI,A,,4.788,5.11,987.59,989.0,34.372,989.5,136.0,45.0,,342.5,,,326.9,,325.6,325.584,4,2,9,9,9
2019-09-23T21:06:29.000Z,26NA20190918,59.91,-42.6,,2020.0N,SOCATENHANCEDDOI,A,,4.794,5.14,987.72,988.9,34.372,989.5,135.0,44.0,,342.0,,,326.0,,324.7,324.688,4,2,9,9,9
2019-09-23T21:08:01.000Z,26NA20190918,59.907,-42.613,,2020.0N,SOCATENHANCEDDOI,A,,4.788,5.14,987.59,989.0,34.372,989.5,134.0,44.0,,341.1,,,325.1,,323.8,323.792,4,2,9,9,9
2019-09-23T21:09:34.000Z,26NA20190918,59.904,-42.625,,2020.0N,SOCATENHANCEDDOI,A,,4.757,5.14,987.45,989.1,34.372,989.5,132.0,43.0,,340.2,,,323.9,,322.6,322.596,4,2,9,9,9
2019-09-23T21:11:06.000Z,26NA20190918,59.902,-42.637,,2020.0N,SOCATENHANCEDDOI,A,,4.703,5.11,987.7,989.3,34.372,989.5,131.0,43.0,,340.1,,,323.6,,322.3,322.296,4,2,9,9,9
2019-09-23T21:12:39.000Z,26NA20190918,59.899,-42.648,,2020.0N,SOCATENHANCEDDOI,A,,4.659,5.06,987.92,989.1,34.372,989.5,129.0,42.0,,339.6,,,323.1,,321.8,321.797,4,2,9,9,9
2019-09-23T21:14:12.000Z,26NA20190918,59.896,-42.66,,2020.0N,SOCATENHANCEDDOI,A,,4.642,5.03,987.84,988.8,34.372,989.5,128.0,42.0,,338.9,,,322.5,,321.3,321.2,4,2,9,9,9
2019-09-23T21:15:44.000Z,26NA20190918,59.893,-42.672,,2020.0N,SOCATENHANCEDDOI,A,,4.605,4.99,987.7,989.2,34.372,989.5,127.0,42.0,,337.9,,,321.8,,320.5,320.501,4,2,9,9,9
2019-09-23T21:17:17.000Z,26NA20190918,59.89,-42.685,,2020.0N,SOCATENHANCEDDOI,A,,4.595,4.97,987.9,988.8,34.372,989.5,126.0,41.0,,337.0,,,320.9,,319.7,319.605,4,2,9,9,9
2019-09-23T21:18:49.000Z,26NA20190918,59.887,-42.697,,2020.0N,SOCATENHANCEDDOI,A,,4.553,4.95,987.74,988.9,34.372,989.5,125.0,41.0,,335.9,,,319.6,,318.3,318.31,4,2,9,9,9
2019-09-23T21:20:22.000Z,26NA20190918,59.885,-42.709,,2020.0N,SOCATENHANCEDDOI,A,,4.528,4.93,987.59,988.7,34.372,989.5,124.0,40.0,,334.9,,,318.5,,317.2,317.214,4,2,9,9,9
2019-09-23T21:21:54.000Z,26NA20190918,59.882,-42.722,,2020.0N,SOCATENHANCEDDOI,A,,4.502,4.9,987.83,988.5,34.372,989.5,123.0,40.0,,333.8,,,317.5,,316.2,316.218,4,2,9,9,9
2019-09-23T21:23:27.000Z,26NA20190918,59.879,-42.734,,2020.0N,SOCATENHANCEDDOI,A,,4.469,4.86,988.01,989.1,34.372,989.5,122.0,39.0,,332.5,,,316.6,,315.3,315.32,4,2,9,9,9
2019-09-23T21:25:00.000Z,26NA20190918,59.876,-42.747,,2020.0N,SOCATENHANCEDDOI,A,,4.444,4.83,987.74,988.3,34.372,989.5,121.0,39.0,,331.6,,,315.5,,314.2,314.225,4,2,9,9,9
2019-09-23T21:26:32.000Z,26NA20190918,59.873,-42.759,,2020.0N,SOCATENHANCEDDOI,A,,4.408,4.81,987.8,988.9,34.372,989.5,120.0,39.0,,330.7,,,314.6,,313.3,313.328,4,2,9,9,9
2019-09-23T21:28:05.000Z,26NA20190918,59.87,-42.771,,2020.0N,SOCATENHANCEDDOI,A,,4.369,4.77,987.75,989.0,34.372,989.5,120.0,38.0,,329.9,,,313.9,,312.6,312.63,4,2,9,9,9